Theta_e
351 351 351 351 352 353 353 352 352 353 353 353 353 353 353 354 355 353 352 351 351 350 357 354 354 354 355 355 355 353 354 354 353 354 354 355 356 359 362 361 361 360 359 359 359 358 358 357 357 357 357 357 356 356 356 356 357 357 357 358 357 357 357 357 358 358 357 357 357 356 357 357 357 356 356 356 355 355 354 354 354 353 353 353 353
351 349 351 350 350 351 351 351 351 351 351 350 352 353 354 354 355 354 351 349 350 350 354 352 352 353 353 354 355 355 354 354 353 353 354 355 355 358 362 362 360 360 360 359 359 359 359 359 358 357 357 357 357 357 356 357 357 357 357 357 357 357 357 357 357 357 357 357 356 356 358 358 357 356 357 356 356 356 356 354 354 354 354 354 354
351 349 350 350 350 350 350 350 351 351 352 352 356 355 354 355 355 355 353 351 350 351 353 351 351 351 352 354 354 355 354 355 354 353 353 354 355 356 358 362 362 360 360 360 359 359 359 359 359 359 358 358 358 357 357 357 357 358 358 358 358 358 358 358 357 357 357 357 357 358 358 357 357 357 356 356 357 357 357 357 356 357 356 356 356
351 349 350 349 349 350 350 351 351 352 354 354 356 356 358 358 358 354 352 351 350 352 353 352 351 350 350 352 354 354 354 355 354 354 354 354 354 355 356 358 361 362 362 360 360 360 360 360 360 359 359 358 358 359 358 358 358 358 358 358 358 358 358 358 358 358 358 358 359 359 359 358 358 357 358 358 359 359 358 358 358 359 358 358 358
351 353 354 348 349 350 350 352 351 352 353 355 353 354 355 356 356 356 350 352 351 349 355 354 352 349 348 350 353 353 354 354 355 355 354 355 355 354 355 357 358 360 361 362 361 360 360 361 360 360 360 359 359 358 359 359 359 359 359 360 359 359 359 359 359 359 359 360 360 360 360 360 359 359 359 360 360 360 360 360 360 360 360 359 359
351 350 349 348 349 350 350 350 350 352 353 353 352 353 354 355 356 351 355 353 347 348 353 350 352 349 351 349 352 353 353 353 354 354 355 355 355 355 355 355 356 357 358 360 361 362 362 362 361 361 361 361 361 360 361 361 360 360 360 360 360 360 360 360 361 361 361 361 361 361 361 361 361 361 360 361 361 361 361 361 361 361 361 361 361
352 350 349 349 349 350 350 350 351 353 351 353 353 353 353 354 356 352 349 348 349 354 354 350 351 350 350 351 350 351 353 352 353 354 354 355 356 355 355 355 356 356 357 356 359 360 360 362 362 363 363 363 363 364 363 363 363 363 363 363 362 362 361 361 361 363 363 363 362 363 363 363 362 362 363 362 362 362 362 362 362 362 362 362 362
352 350 348 349 349 350 350 352 352 352 352 352 357 354 354 354 357 352 348 345 354 351 351 350 351 351 351 352 351 353 352 352 352 352 353 355 355 356 356 356 356 355 358 358 357 357 359 361 362 363 363 364 364 365 365 364 364 364 364 364 364 364 363 364 364 365 365 365 364 365 364 363 363 364 363 363 363 363 363 363 363 363 363 362 362
353 351 349 349 350 350 350 352 355 352 352 351 353 358 357 355 355 356 349 348 349 348 349 350 349 350 352 352 352 354 352 353 352 352 352 354 354 354 355 355 356 360 360 358 357 357 357 358 360 361 362 363 364 365 366 366 366 366 366 365 365 365 364 364 364 364 365 365 366 366 365 365 365 365 365 365 364 364 364 363 363 363 363 362 363
354 351 350 350 350 351 350 352 354 353 353 354 354 356 357 356 355 353 353 351 349 350 352 353 351 349 350 349 354 353 352 351 352 356 354 352 354 354 355 355 355 354 355 356 355 357 357 356 356 357 357 358 359 361 363 366 367 367 367 367 368 368 367 366 366 365 365 366 366 366 366 366 366 367 366 365 364 364 364 363 363 363 362 361 361
354 353 350 354 351 351 352 354 355 354 355 355 354 357 361 357 354 353 355 355 353 353 354 353 354 353 351 353 351 352 353 351 354 353 353 352 352 354 353 355 354 354 354 354 354 355 356 355 355 355 354 355 358 360 361 363 364 367 368 369 369 369 368 367 367 367 367 367 367 368 368 368 367 366 365 365 364 364 363 363 362 361 359 358 357
355 354 351 354 351 352 353 355 355 355 355 354 354 353 354 354 353 356 357 356 358 359 358 355 351 347 351 355 350 350 351 353 354 351 352 352 352 355 354 355 355 354 353 354 355 355 356 356 358 357 356 356 357 359 360 360 361 363 365 367 368 368 369 370 368 368 367 368 369 369 367 366 365 365 365 364 363 363 362 360 358 356 353 353 353
359 355 351 357 353 353 354 356 356 357 357 354 353 353 354 355 358 360 358 351 351 355 353 349 344 345 345 345 346 348 354 358 354 352 349 351 351 352 354 355 355 354 356 356 356 356 356 358 358 358 358 358 357 357 357 357 358 358 359 362 364 367 369 370 370 369 369 368 368 367 365 365 365 365 364 363 363 362 358 355 353 354 353 352 352
363 358 356 353 353 354 355 356 357 357 356 357 355 361 363 359 356 355 354 352 351 354 355 347 345 339 341 341 343 343 350 353 352 352 351 350 350 351 352 351 352 353 355 356 355 355 356 357 359 358 359 359 358 358 358 357 356 356 359 361 363 365 365 366 368 369 369 369 368 365 365 365 365 365 364 363 361 359 355 354 353 353 352 352 351
362 361 356 353 353 354 355 356 356 358 360 357 357 356 357 358 355 354 353 350 353 356 357 348 343 344 343 341 335 335 344 342 343 347 349 350 350 349 350 349 350 352 354 355 355 356 354 356 357 358 358 359 358 358 358 357 357 360 362 363 364 365 367 368 369 370 371 368 367 366 366 366 365 364 363 362 358 356 355 353 353 353 352 352 350
361 361 358 355 354 354 355 355 356 360 357 356 356 355 356 357 357 361 353 350 347 350 357 350 350 347 340 336 334 333 333 338 338 343 343 345 349 349 350 349 350 351 354 353 352 355 356 355 355 357 358 358 359 359 358 358 360 362 363 365 365 364 366 370 372 372 369 367 366 366 366 365 364 363 360 360 358 355 356 353 353 352 351 350 349
361 361 360 355 355 355 356 355 356 358 357 356 355 355 354 356 357 359 353 351 348 348 351 354 350 351 349 343 338 335 333 335 335 341 340 343 343 345 350 351 349 351 352 351 352 352 350 350 354 355 356 357 358 358 359 359 360 363 364 363 364 365 368 370 372 369 367 365 366 367 366 365 364 362 359 358 359 354 353 353 351 350 350 349 349
360 361 360 357 355 356 356 356 356 358 359 356 355 356 356 356 357 357 355 351 352 348 347 354 350 358 349 348 349 341 341 341 336 337 342 345 344 342 342 345 348 350 352 350 348 348 353 351 353 354 356 355 357 358 358 359 361 363 365 367 366 368 369 366 368 367 366 365 366 366 366 365 364 362 360 358 356 354 352 351 349 350 350 349 348
360 360 360 359 357 356 357 357 356 356 363 357 356 356 355 357 359 357 356 360 352 345 344 345 347 349 354 351 352 353 346 344 339 337 336 340 342 343 341 340 341 343 346 345 346 346 348 350 350 350 353 354 355 356 358 358 359 364 367 370 369 371 369 366 365 367 364 365 367 366 365 364 363 362 360 358 356 355 352 350 349 349 350 348 347
359 358 360 361 358 357 357 357 356 356 362 359 358 357 358 358 361 358 357 360 350 351 346 347 344 343 355 350 352 352 349 345 344 342 336 334 339 343 344 343 339 340 343 342 343 344 344 348 346 347 352 353 355 357 359 360 362 365 368 365 369 369 367 365 364 366 365 365 367 366 364 365 363 362 360 358 357 353 351 350 349 348 349 347 346
358 357 358 360 362 358 357 357 356 356 364 361 360 360 359 358 357 358 357 355 354 352 350 350 346 348 348 349 347 348 345 348 348 348 342 337 338 338 340 345 341 340 340 340 341 343 345 347 347 350 355 358 359 359 360 362 365 368 368 367 368 367 365 363 362 365 364 365 366 366 363 364 364 363 360 358 357 354 351 350 349 347 348 346 345
357 357 357 358 361 361 358 357 357 356 362 360 360 360 360 359 358 357 355 353 354 353 358 354 350 351 348 348 346 347 346 346 344 343 341 340 336 338 340 339 340 344 342 342 344 343 343 344 346 346 350 354 356 360 364 366 366 367 365 363 365 365 364 362 362 364 365 364 365 365 364 363 364 362 361 358 356 354 352 351 349 348 346 345 344
357 357 357 358 359 362 359 358 358 361 362 360 359 359 358 358 358 357 356 353 352 356 355 354 351 353 349 349 347 346 345 342 344 343 341 340 339 337 337 341 340 340 347 345 351 348 344 344 344 345 352 352 356 362 366 366 365 365 363 362 360 361 362 364 363 363 360 360 364 364 363 362 363 361 359 357 356 354 353 351 351 348 346 345 343
355 355 356 357 359 360 362 360 361 360 360 360 360 359 359 359 358 357 355 354 356 356 352 351 351 349 348 348 350 349 351 348 345 348 345 344 338 339 340 342 346 342 343 348 344 344 346 346 345 347 350 353 359 362 363 366 366 364 366 363 359 359 360 364 365 363 361 360 360 359 359 360 360 360 359 357 356 355 354 353 351 349 345 344 343
354 354 355 356 359 358 358 359 359 361 361 360 360 359 360 359 358 356 354 354 355 355 354 352 353 352 351 350 349 349 349 349 348 346 345 345 341 341 341 341 343 344 349 344 345 344 345 349 352 353 355 360 359 363 363 363 364 363 362 363 360 359 359 360 363 362 361 360 360 361 363 361 360 360 360 360 359 357 355 354 351 349 346 344 342
354 354 356 356 358 359 360 359 360 360 362 361 360 360 361 359 358 357 355 355 354 356 356 353 354 355 353 353 351 352 351 348 349 347 346 344 344 342 344 343 342 343 345 349 347 344 349 348 350 357 360 359 359 361 364 362 362 361 360 362 360 355 356 356 360 360 360 359 360 360 360 362 363 361 361 360 360 359 358 355 351 350 348 345 342
355 356 358 357 358 359 359 359 359 359 361 362 363 362 363 360 360 357 358 355 355 355 355 353 353 354 352 354 354 353 351 352 350 352 347 346 347 349 348 341 340 338 342 346 346 344 344 347 350 357 358 365 364 366 364 363 361 361 362 366 365 356 353 353 354 356 357 358 359 360 360 361 362 362 362 361 359 359 359 356 353 351 348 345 342
356 358 358 358 357 358 360 360 359 359 360 361 360 360 360 360 358 359 357 358 356 355 355 353 352 353 353 352 353 351 352 352 352 354 353 350 353 346 347 344 343 339 340 344 343 350 347 352 359 358 361 362 364 363 365 363 364 362 364 366 365 361 353 351 350 351 351 351 353 355 356 358 359 362 362 359 358 358 358 358 356 354 349 346 344
356 359 358 359 358 358 358 359 360 360 360 361 361 361 360 361 360 358 357 357 359 357 355 355 354 352 352 353 354 354 354 355 354 354 355 357 354 349 353 351 347 343 341 341 343 346 354 350 351 363 361 362 362 364 365 366 363 363 365 365 363 364 354 347 347 346 347 348 349 351 353 356 358 359 360 360 358 358 358 358 357 355 350 348 345
357 359 359 359 358 362 359 359 360 361 361 361 362 361 361 360 360 360 359 358 357 358 357 355 355 354 355 355 354 353 354 353 353 351 353 355 355 355 354 351 351 346 345 341 343 343 352 355 350 358 365 360 359 362 362 364 359 362 367 367 364 362 349 346 347 346 346 347 347 347 350 352 354 355 355 354 354 353 355 356 355 354 352 350 347
359 359 359 358 358 359 360 359 359 361 361 361 362 362 362 361 360 360 359 358 357 356 357 357 356 356 355 354 353 353 353 353 353 352 354 356 355 354 355 353 350 353 347 346 342 352 348 357 358 355 355 358 358 359 359 362 362 362 367 368 367 357 350 356 350 348 347 346 345 344 344 346 347 348 348 349 350 351 352 354 354 353 352 350 348
358 357 358 358 358 357 358 359 359 359 361 362 362 362 361 362 361 360 360 359 357 356 356 356 356 357 355 354 354 354 354 353 354 353 354 356 356 354 355 354 351 350 350 348 345 346 352 353 354 355 354 357 360 358 360 363 362 358 367 367 368 357 363 364 354 349 347 345 344 343 342 341 341 342 345 347 349 351 353 354 352 352 352 351 349
358 357 357 358 358 358 358 359 359 360 360 361 362 362 361 361 361 361 361 359 358 358 358 357 356 356 356 355 355 354 354 353 354 354 353 354 358 356 354 352 354 353 352 350 347 347 351 350 350 353 356 356 355 360 360 360 364 366 362 367 367 365 364 364 364 353 348 345 343 342 341 340 339 340 343 346 348 349 351 353 351 350 349 347 345
358 357 358 358 358 358 357 358 359 359 360 361 361 362 361 360 360 360 360 359 358 358 358 358 359 357 357 356 355 354 354 353 354 353 354 352 351 353 353 354 353 354 353 352 349 348 347 351 352 354 352 357 354 361 359 358 360 365 364 365 364 364 363 365 365 363 351 346 342 340 340 339 338 339 340 343 345 347 348 347 345 344 343 342 338
358 358 358 358 358 358 358 358 358 359 360 359 360 361 361 360 360 360 361 360 359 358 357 357 358 359 357 356 356 355 355 355 355 354 353 353 351 351 352 353 353 353 353 353 351 347 347 349 349 349 354 359 358 357 360 359 363 363 363 364 362 361 362 363 363 362 352 346 343 342 340 339 339 339 338 339 341 341 342 340 337 336 335 334 331
356 357 358 358 358 358 357 358 358 358 358 359 360 360 360 360 360 360 361 361 360 359 358 358 358 358 357 357 356 357 357 357 357 357 355 352 352 353 352 353 353 353 354 352 352 352 350 347 351 351 355 353 356 357 358 360 359 362 362 363 362 361 361 362 363 363 357 348 345 343 341 340 339 338 336 336 335 333 333 332 331 331 331 330 329
354 355 356 357 357 357 356 357 357 357 358 358 359 359 360 361 361 360 360 360 360 360 360 360 360 360 358 357 358 358 357 356 356 356 356 355 355 352 351 352 352 353 353 353 352 351 350 348 349 352 353 354 357 358 359 358 362 362 362 361 360 361 363 362 361 361 351 346 346 344 342 340 340 338 337 335 334 333 332 331 330 330 329 328 328
353 353 353 354 355 356 357 358 358 358 358 358 359 359 359 360 360 360 361 361 360 360 360 360 360 360 359 359 359 359 357 356 356 357 357 356 355 353 353 354 353 352 352 351 352 351 350 349 349 349 353 352 355 357 359 360 357 356 358 361 362 362 363 360 359 359 359 358 358 359 349 348 345 338 336 335 333 332 332 332 331 330 328 326 323
351 350 350 352 354 355 356 356 357 357 358 357 358 359 359 360 360 360 359 360 360 360 360 360 360 360 359 359 360 359 358 358 357 357 358 357 355 356 356 356 355 353 352 352 351 350 350 349 350 351 351 353 353 353 357 358 359 358 356 356 353 359 362 360 357 359 360 358 355 349 350 349 346 347 339 334 333 333 333 332 332 330 329 326 323
351 350 350 349 350 353 354 355 356 357 357 357 357 358 358 358 358 359 359 359 359 359 359 360 360 359 359 359 359 359 359 360 359 359 359 358 358 356 357 356 356 354 353 353 351 351 350 349 349 349 351 351 353 353 355 355 355 356 357 357 353 353 355 360 359 357 359 360 359 359 354 352 352 349 338 337 337 335 334 335 336 335 334 330 327
348 348 349 349 349 350 352 354 355 355 355 355 356 356 356 357 358 357 358 358 358 358 358 358 358 359 359 359 359 359 361 363 361 360 359 359 358 357 358 358 357 355 355 353 352 352 351 350 350 352 350 350 352 352 351 353 352 350 354 355 355 356 356 355 358 362 360 359 360 359 359 360 358 360 361 362 363 352 349 339 340 340 337 331 329
349 351 349 348 347 347 349 351 353 353 354 355 356 348 350 357 356 356 356 357 357 357 357 357 356 357 357 358 359 362 362 362 361 357 350 352 357 359 360 360 358 357 355 354 353 352 352 350 349 350 348 348 349 351 351 352 354 355 353 354 352 355 355 355 357 361 363 359 356 356 357 360 357 359 361 359 358 360 358 358 356 349 341 334 330
348 351 350 348 346 345 345 347 349 350 353 354 347 337 336 340 355 356 355 356 356 356 356 356 356 356 356 356 357 360 363 363 361 354 348 345 345 347 348 357 361 359 356 354 353 353 351 350 351 350 349 349 350 352 351 350 352 352 353 355 354 354 352 350 348 354 363 360 359 355 355 360 361 358 359 358 358 359 357 358 344 340 335 333 331
349 350 349 350 349 348 347 347 346 348 351 350 337 334 334 332 341 355 355 355 354 354 354 355 355 355 355 355 356 356 357 359 360 362 358 352 344 342 341 343 343 348 353 358 357 355 353 351 351 351 350 350 351 353 351 351 353 355 355 354 355 354 353 351 352 349 358 361 356 355 354 359 362 359 358 358 358 358 355 345 339 337 335 333 331
350 350 350 350 351 351 349 348 349 349 349 343 333 332 330 329 330 342 352 355 354 353 354 354 354 355 356 356 355 355 355 360 361 361 361 359 351 345 342 342 343 342 336 336 343 357 358 355 352 351 352 352 351 353 354 356 358 354 356 354 355 354 353 352 352 352 356 365 358 355 353 357 360 357 356 357 356 357 355 344 340 338 336 334 333
348 349 348 348 350 351 352 352 352 352 353 342 327 326 324 323 325 332 345 349 352 353 354 354 353 354 354 354 354 354 355 356 358 358 359 359 358 357 356 355 354 353 348 338 334 336 347 353 355 352 354 357 352 353 358 360 357 353 354 353 356 353 353 352 356 357 360 361 356 355 352 354 358 354 353 355 356 356 357 346 336 334 334 333 331
343 345 346 346 348 348 348 351 352 351 349 330 327 325 322 320 321 329 341 344 346 349 351 353 354 354 355 353 354 354 355 355 356 356 355 354 354 353 352 351 351 352 353 351 351 349 347 348 351 354 354 357 356 356 357 360 359 358 359 357 357 356 357 359 358 358 358 362 360 355 348 353 358 353 352 355 354 355 357 343 337 335 334 332 331
344 346 346 347 346 346 348 347 347 347 344 325 323 322 321 320 325 339 340 341 342 344 347 350 352 355 354 353 353 354 354 354 353 343 350 357 354 352 351 350 350 350 349 351 340 342 353 352 352 352 353 353 344 355 356 357 361 361 360 359 358 357 354 350 347 348 348 356 360 356 351 350 356 349 351 354 355 354 357 359 342 337 334 332 330
342 343 344 345 346 347 347 347 347 346 343 330 320 318 319 320 331 340 341 342 343 343 344 345 347 348 349 353 355 354 354 354 348 334 331 342 350 350 350 350 350 349 349 351 338 329 329 329 329 332 332 331 330 328 326 327 339 347 350 347 346 348 347 344 345 345 347 353 355 355 351 347 352 352 351 354 355 354 355 356 359 342 336 330 325
341 342 343 342 342 343 343 343 345 342 341 333 318 316 317 319 332 341 342 342 341 342 343 343 344 345 346 349 350 352 355 354 331 322 323 339 346 347 347 347 346 346 348 349 348 347 329 323 323 324 325 326 327 326 326 326 325 334 344 344 347 347 345 345 343 345 348 351 352 355 350 348 353 354 351 354 354 354 354 358 361 355 339 332 326
342 342 340 337 337 338 340 340 343 341 340 336 318 316 315 317 333 343 344 345 345 345 345 346 347 348 348 349 349 348 342 331 316 317 319 334 343 344 346 345 344 344 346 348 347 347 349 349 351 350 348 339 342 342 344 333 331 340 343 346 348 347 345 346 346 347 344 347 354 358 349 351 352 352 350 349 345 350 355 356 354 354 352 350 347
Wind_Speed
4 3 3 4 4 4 4 4 3 3 3 4 4 4 4 3 3 3 3 3 3 3 2 2 2 1 1 1 2 2 2 1 1 1 1 1 2 3 5 4 4 5 5 6 7 7 7 6 6 6 7 6 6 6 6 7 7 8 9 9 9 10 10 10 10 10 11 11 11 12 11 12 11 11 11 11 10 10 10 10 10 10 10 10 11
3 2 4 4 4 4 4 3 3 3 4 4 3 3 3 3 3 3 3 3 3 2 2 3 2 2 1 1 2 2 2 2 1 1 1 2 2 2 6 6 6 5 6 7 7 8 8 8 7 7 7 7 7 7 7 7 7 8 8 9 10 10 10 10 11 11 11 11 11 11 12 11 11 11 10 10 10 10 10 10 10 11 11 11 11
3 3 3 3 3 4 3 3 4 3 3 3 2 3 2 3 2 2 2 3 3 2 2 2 2 2 2 2 2 2 2 2 1 1 2 2 2 2 4 7 8 7 7 7 8 8 8 9 9 9 8 8 8 8 8 8 9 9 9 9 10 11 11 11 11 11 11 11 11 12 11 11 11 11 11 11 11 11 11 11 11 11 12 11 11
3 3 3 3 3 3 3 3 3 2 3 3 2 2 3 2 1 0 1 1 2 2 1 2 3 2 2 2 2 2 2 2 2 2 2 2 2 2 3 4 7 9 9 8 9 9 9 9 9 9 9 8 8 8 9 9 9 10 10 10 11 11 11 11 11 11 12 12 12 12 12 11 11 11 11 12 12 12 12 12 12 12 13 13 13
3 3 2 2 2 3 3 3 2 2 2 2 3 3 3 3 2 2 1 2 3 3 2 1 2 3 1 2 1 2 2 2 2 2 2 2 2 2 3 4 5 7 8 10 10 10 9 10 10 9 9 9 9 9 10 10 10 10 10 11 11 12 12 12 12 12 12 12 12 12 12 12 12 12 12 12 12 12 12 12 12 12 13 14 13
4 3 3 2 2 2 2 2 2 2 2 2 3 3 3 3 3 3 3 3 4 3 3 4 2 1 1 1 1 2 1 2 2 2 2 2 2 2 2 3 3 4 5 8 10 10 10 10 10 10 10 10 10 10 10 10 10 10 11 11 11 11 12 12 12 12 12 12 12 12 12 12 12 12 12 13 13 13 13 13 13 13 13 13 14
3 3 3 3 2 2 2 1 1 2 2 2 2 2 3 3 2 3 3 4 2 3 2 2 3 3 2 1 1 1 1 2 2 2 3 3 2 3 2 3 3 3 4 5 7 9 10 10 10 10 10 10 10 11 11 10 11 10 11 11 11 12 12 12 12 11 11 11 12 12 12 12 12 12 12 13 13 13 13 12 12 12 12 12 12
3 3 3 2 2 2 2 1 2 2 2 2 2 3 3 3 1 0 3 4 3 3 2 3 3 3 1 1 2 2 3 2 3 3 3 2 3 3 3 3 3 3 4 4 4 6 9 10 10 10 10 11 10 10 11 11 11 11 11 11 11 12 12 12 11 10 11 11 12 12 12 12 12 12 13 13 12 11 11 10 10 10 11 12 12
3 3 2 2 2 2 2 2 1 2 2 2 2 2 2 3 2 0 1 3 3 3 3 1 2 2 2 1 2 2 3 3 3 4 2 4 4 3 3 3 4 5 4 3 3 4 6 9 9 9 9 10 10 10 10 10 10 11 11 11 11 11 11 11 11 10 10 11 11 12 12 12 12 12 13 12 12 10 10 10 10 10 11 11 11
3 3 2 1 2 2 1 2 1 1 1 2 2 2 1 1 3 2 1 1 3 3 4 4 3 2 1 1 2 2 3 3 3 3 3 4 4 5 4 3 3 4 3 3 4 3 4 5 8 8 8 9 9 9 9 10 10 10 11 11 11 11 11 9 9 9 10 10 10 11 12 12 13 11 11 11 11 10 10 10 9 9 10 10 9
4 4 3 2 2 1 1 1 2 2 1 2 3 3 2 1 2 3 2 3 3 3 2 3 4 3 3 2 1 3 3 2 2 3 4 5 5 4 3 3 3 3 4 4 3 3 4 3 3 3 4 7 8 9 9 10 10 10 10 10 10 10 10 9 8 8 9 9 10 10 10 10 11 10 10 10 10 9 9 9 9 9 9 9 9
4 4 4 3 3 2 1 1 2 2 1 2 3 3 3 4 4 3 4 4 1 1 1 2 2 2 3 3 1 2 3 3 3 3 3 4 4 3 4 2 3 3 4 4 3 4 4 4 3 3 4 5 8 8 9 10 10 10 10 10 10 10 10 9 9 8 9 10 10 9 9 9 10 10 10 9 8 8 8 8 8 8 8 8 9
3 4 4 3 3 2 2 1 1 1 1 2 2 2 1 1 1 1 3 5 3 3 2 2 4 4 4 4 5 2 2 3 4 3 4 3 3 3 3 3 3 4 4 3 4 4 4 4 3 3 4 4 5 6 8 9 9 9 9 10 10 10 10 9 9 8 9 10 9 8 8 8 9 9 8 7 7 7 7 8 7 7 8 8 9
3 3 3 4 3 3 2 1 1 1 2 2 2 1 2 2 2 3 2 2 3 2 2 2 4 2 3 5 5 6 3 2 2 3 3 3 3 3 3 4 5 4 2 2 4 4 4 3 3 4 4 3 4 4 4 5 6 7 9 9 10 10 10 9 9 9 9 9 8 8 8 7 8 7 6 6 6 6 7 6 6 7 8 8 10
2 3 3 3 3 3 2 2 2 1 1 2 2 1 1 2 3 3 4 1 1 2 3 2 1 0 1 2 3 6 5 5 2 3 3 3 2 4 3 4 5 3 2 3 3 3 3 3 4 4 4 4 3 3 4 5 6 10 10 9 9 9 9 9 8 8 8 8 7 8 8 8 7 7 6 5 5 5 5 5 6 7 8 9 9
2 2 2 3 4 4 3 2 3 2 2 2 2 2 1 1 2 2 2 4 4 3 2 1 2 1 4 2 2 1 4 4 5 5 1 3 3 3 2 4 4 3 2 3 3 3 3 2 4 4 4 4 3 3 3 4 7 9 9 9 8 7 7 7 7 7 7 8 7 7 8 7 6 5 5 5 4 4 3 4 6 7 8 9 9
2 2 3 4 4 3 4 3 3 3 2 1 2 2 1 0 1 1 1 1 4 2 2 1 1 0 3 1 2 3 1 4 4 4 3 3 1 2 3 4 4 3 3 3 3 3 3 3 3 3 4 3 3 3 3 4 4 4 5 6 7 7 7 6 6 6 7 8 7 7 6 6 5 5 5 5 3 3 4 5 6 7 8 9 9
3 2 2 3 4 4 4 3 3 2 2 2 1 1 0 1 1 1 1 2 1 2 3 2 2 0 1 1 3 1 3 3 2 4 5 1 4 3 3 3 2 3 3 4 4 4 2 4 4 4 3 2 2 2 3 3 3 3 3 5 7 6 6 5 5 6 7 7 6 6 6 5 5 5 4 4 3 3 4 5 6 7 7 9 9
3 3 3 3 3 3 4 3 3 3 2 2 1 1 0 1 0 1 2 1 2 2 4 3 3 2 2 1 1 1 1 1 3 1 5 6 4 3 3 2 2 3 4 4 3 4 3 3 4 3 3 2 2 2 3 3 4 4 5 6 6 5 5 5 6 6 7 7 6 5 5 5 4 4 4 3 3 3 3 5 5 6 7 8 9
4 4 3 3 4 4 3 3 3 3 3 3 2 1 0 0 1 1 0 1 2 1 3 2 2 2 2 3 2 3 2 2 3 1 1 2 6 4 2 3 2 2 3 3 3 4 5 4 3 3 3 3 2 2 3 3 3 3 2 3 5 5 4 5 5 6 7 8 7 5 6 5 4 4 3 3 3 3 3 4 4 6 6 8 9
4 5 4 4 4 4 4 3 3 3 2 2 1 1 1 2 2 1 1 1 1 1 2 1 1 2 3 3 2 3 2 2 1 2 3 3 3 3 6 5 3 2 2 3 3 3 4 4 3 3 3 3 1 2 2 2 2 2 2 3 4 5 4 4 5 6 7 8 8 6 6 6 5 4 4 4 3 3 3 3 3 5 5 7 8
4 4 4 4 4 4 4 4 4 3 2 3 2 1 1 2 2 3 2 2 0 1 2 1 1 1 2 2 4 3 3 1 1 3 2 3 1 4 3 4 6 6 3 4 5 3 3 3 3 2 2 2 0 2 1 2 2 2 2 4 5 6 6 6 6 6 7 8 8 7 7 7 6 5 4 4 3 3 2 3 2 3 4 5 7
4 3 4 4 4 4 4 4 4 3 2 3 3 3 2 2 2 2 3 4 2 2 3 2 1 3 2 2 3 2 1 1 4 2 1 0 3 3 3 1 2 5 4 6 5 4 2 1 2 2 2 2 1 1 1 2 2 3 4 5 6 7 8 8 7 8 8 8 8 7 7 7 7 6 5 5 4 4 3 2 2 2 3 4 6
4 4 4 4 4 4 4 3 3 3 3 3 3 3 2 2 2 2 3 2 2 3 3 2 2 3 2 0 1 1 0 1 2 2 3 1 1 3 2 3 1 3 4 6 3 2 3 2 2 2 1 1 0 1 2 2 2 4 4 5 7 8 8 9 9 9 9 9 9 8 8 7 7 7 6 6 6 5 4 4 2 2 2 2 4
5 5 5 5 4 4 4 4 4 4 4 3 3 3 3 2 3 2 3 4 4 3 2 2 1 2 1 1 0 1 2 2 1 2 1 1 2 2 1 1 1 3 3 3 4 4 1 3 2 1 0 0 1 1 2 1 2 2 4 5 8 8 9 10 10 10 10 10 10 9 8 8 9 8 7 6 6 6 6 5 4 2 2 1 3
6 6 5 5 4 5 5 5 5 4 4 4 4 3 3 3 3 3 4 3 2 3 2 3 2 1 2 1 1 2 2 1 1 1 1 2 1 1 2 1 1 2 2 4 3 3 4 3 3 1 1 1 1 1 1 1 2 5 6 5 6 8 10 10 10 10 10 11 11 11 10 9 8 9 9 8 7 7 7 7 5 4 3 1 2
6 5 4 5 5 5 5 5 5 5 4 4 3 3 3 3 3 3 2 2 3 3 3 3 2 1 0 0 1 2 2 2 1 2 1 2 1 2 1 5 4 2 4 2 3 2 2 4 2 3 3 2 2 2 1 2 4 5 5 4 5 8 9 10 10 10 10 10 11 12 12 11 9 10 10 10 9 9 9 8 7 5 4 3 1
5 4 5 5 5 5 4 5 4 4 4 4 4 4 4 4 3 3 4 2 4 4 3 3 2 2 1 1 1 3 2 2 1 1 2 2 2 1 3 4 3 4 3 3 3 2 1 3 2 1 2 3 3 3 3 3 3 4 5 3 4 5 8 9 9 9 9 10 10 12 12 12 12 10 10 11 11 10 10 9 8 7 5 4 3
5 5 5 5 5 5 5 4 4 4 4 4 4 4 4 4 4 4 4 3 4 5 3 3 3 2 1 2 2 2 3 2 2 1 2 2 2 1 1 1 3 2 2 3 3 2 1 1 1 2 2 3 5 3 4 3 3 3 3 3 4 4 7 9 9 9 9 10 10 11 11 12 12 12 11 11 13 12 11 10 9 8 7 6 4
5 4 5 5 5 5 5 5 4 4 4 4 4 4 4 3 4 4 4 3 3 3 3 3 3 2 2 1 2 3 2 2 3 2 3 3 2 2 2 2 2 1 3 2 4 3 3 2 2 2 4 5 4 4 2 3 3 3 2 2 3 4 7 9 9 10 10 10 10 10 11 11 12 12 12 12 12 13 11 10 10 9 9 8 6
5 5 5 5 5 5 5 4 4 4 4 4 3 3 3 3 3 3 3 2 3 4 3 3 3 2 3 3 2 3 2 3 2 2 2 2 3 2 1 1 2 2 4 3 2 2 2 2 2 2 2 4 3 4 3 2 2 2 2 2 3 4 7 6 9 10 10 10 10 10 11 11 11 12 12 12 12 13 13 10 10 9 10 9 7
5 5 5 5 5 5 4 4 4 4 4 4 3 3 3 3 3 3 3 2 3 4 4 2 2 3 3 4 4 3 2 2 2 2 3 2 2 2 2 1 1 1 2 3 4 6 2 3 4 5 4 3 5 5 4 3 2 3 3 3 4 5 3 4 7 10 11 11 10 10 10 11 11 11 12 12 12 13 12 11 12 10 9 9 8
5 5 5 5 5 5 5 4 5 4 5 4 4 4 3 4 3 3 3 3 4 4 3 4 3 3 3 4 4 4 2 3 3 2 2 2 1 1 1 1 1 2 3 3 3 6 4 2 2 4 3 3 4 2 4 4 4 4 3 3 4 3 3 3 4 8 11 11 11 10 10 11 11 12 12 12 12 13 13 12 13 12 11 11 10
5 5 5 4 4 5 4 5 5 5 5 5 4 4 4 5 4 3 3 3 4 4 3 4 4 3 3 4 5 4 3 4 3 3 2 2 2 3 3 3 3 3 3 3 3 3 6 3 4 2 3 1 4 2 4 6 6 4 5 5 4 3 4 4 4 5 10 11 11 11 11 11 12 12 12 12 12 13 13 14 14 13 12 11 11
4 5 5 5 5 5 5 5 5 5 5 5 4 4 4 5 5 4 4 4 4 4 4 5 4 3 3 4 5 4 2 3 4 3 2 3 2 3 4 3 4 3 3 4 3 3 5 5 2 3 3 1 2 6 6 4 4 4 6 6 5 4 3 4 5 4 8 11 11 11 11 12 12 12 12 11 11 12 13 14 14 14 12 11 11
4 4 5 5 5 5 5 5 5 5 5 4 4 4 5 5 5 5 5 4 5 5 5 5 4 4 4 4 5 4 3 4 4 4 3 2 3 3 4 3 3 4 2 2 4 4 2 5 3 3 3 4 4 4 4 4 4 5 4 5 4 5 6 5 4 5 6 10 12 12 12 12 12 12 12 11 10 11 12 13 13 14 13 11 11
5 4 4 4 5 5 5 6 6 6 6 6 5 5 5 5 5 5 5 4 5 5 5 5 5 4 5 5 6 4 3 4 4 4 3 4 3 2 3 3 3 3 1 2 2 2 3 6 5 3 2 2 2 4 3 4 4 4 3 4 5 6 7 6 4 4 7 10 10 11 11 11 12 12 12 11 10 10 11 12 13 13 13 12 11
5 5 5 4 5 6 6 6 6 7 6 6 6 6 6 5 5 5 5 5 5 5 5 5 5 5 5 6 6 5 4 5 5 5 4 5 4 3 4 4 4 2 2 2 2 2 3 5 4 5 3 4 4 4 3 2 4 5 6 5 4 4 4 6 5 4 4 5 5 7 7 7 9 11 11 11 10 11 11 11 12 13 13 12 11
6 5 5 5 5 5 6 6 6 7 7 6 6 7 6 6 6 6 5 6 6 5 6 6 6 6 6 6 6 6 6 6 6 6 5 5 4 5 5 5 4 3 3 3 2 3 3 4 4 4 5 3 3 6 1 0 2 3 4 6 9 4 2 3 7 6 4 6 8 9 8 8 10 9 10 12 11 12 12 11 11 13 13 13 12
5 6 6 7 6 6 6 6 6 5 6 5 6 6 6 6 6 6 6 6 6 6 6 6 6 6 7 7 7 6 7 6 6 6 6 6 4 5 4 3 3 3 4 3 3 3 3 3 4 5 3 4 4 4 3 2 4 2 3 3 5 8 8 4 3 6 6 5 6 6 5 5 6 7 9 9 10 12 12 11 12 12 13 13 12
1 2 3 3 4 5 6 7 7 6 5 6 5 5 6 7 6 7 7 7 6 6 6 6 6 6 6 6 7 7 7 9 10 10 8 7 5 5 5 4 4 4 4 4 4 3 4 3 5 4 4 5 5 5 5 4 4 6 1 1 4 5 5 6 7 4 4 4 4 6 5 3 6 7 6 6 6 7 9 10 10 12 13 13 12
2 2 2 1 2 4 5 5 5 5 5 5 7 12 10 6 6 6 5 6 6 6 6 6 7 7 7 7 7 11 12 12 12 12 12 12 11 8 6 5 5 5 5 5 4 4 4 5 6 5 6 6 6 6 5 5 4 3 3 3 5 5 4 5 6 4 2 2 3 6 9 2 4 6 5 6 7 5 6 5 6 8 10 11 11
3 3 3 4 3 1 2 3 4 5 5 5 10 11 12 12 7 6 6 6 6 6 6 7 7 7 7 7 7 9 10 10 11 12 13 13 13 13 13 12 9 6 5 5 5 4 4 5 6 5 6 7 8 6 6 6 4 5 5 3 4 4 4 4 8 8 1 1 1 4 10 5 1 6 8 7 7 6 6 6 11 13 13 13 13
2 1 3 3 2 2 0 1 3 4 5 7 9 8 9 10 9 6 5 5 5 6 6 7 7 6 7 6 6 5 6 7 7 7 9 12 13 13 13 13 13 12 11 8 7 5 5 6 6 6 6 7 8 6 6 4 6 4 4 4 4 5 5 4 4 5 3 2 5 6 9 8 0 5 8 7 6 5 7 10 13 14 13 13 13
2 2 2 3 4 3 3 2 1 1 2 4 7 8 8 9 10 8 5 6 6 7 6 7 7 7 6 5 6 5 6 9 8 7 7 8 9 12 13 12 12 11 12 13 13 10 6 6 7 8 7 6 7 7 5 4 3 5 4 4 4 4 5 6 6 6 8 1 2 6 8 10 4 6 7 8 6 5 7 9 12 13 14 13 13
5 5 4 3 4 4 4 4 3 3 3 5 7 8 8 7 5 7 5 6 7 7 7 7 6 7 6 6 6 6 6 6 6 6 6 6 6 6 6 6 6 8 9 12 14 15 12 8 7 8 10 6 9 10 9 4 4 7 6 6 3 4 5 7 7 6 6 1 5 5 7 8 2 3 6 8 7 8 8 10 13 14 14 14 13
7 7 6 6 5 4 5 5 4 5 7 12 10 8 7 7 5 3 4 5 5 6 6 6 6 6 6 5 6 7 6 6 6 6 6 6 6 6 6 7 7 7 7 6 7 6 6 7 9 10 11 9 10 11 9 5 6 7 5 6 6 7 7 6 5 6 7 5 6 4 6 7 1 3 6 7 7 7 8 10 12 13 13 13 12
4 4 5 5 6 7 6 5 5 6 8 15 13 12 10 7 4 2 0 1 3 4 5 5 4 4 4 5 5 6 6 7 8 8 8 5 5 6 8 8 7 7 7 8 10 9 8 8 8 9 9 11 11 10 9 6 5 4 2 2 3 5 6 6 8 7 7 3 5 5 5 6 3 5 8 6 5 7 8 7 10 12 12 12 10
4 5 6 5 5 6 7 8 8 7 7 11 13 11 11 9 4 3 2 1 0 2 3 4 4 5 5 4 4 5 5 6 7 8 8 5 6 7 7 8 7 7 8 6 8 13 14 14 15 15 16 16 15 15 15 13 9 4 2 4 7 7 5 7 7 6 7 3 3 7 6 8 4 5 8 6 6 7 7 8 6 8 9 8 7
8 8 6 7 8 8 9 9 9 7 8 12 12 11 11 10 6 4 2 2 2 2 3 3 3 3 5 8 7 5 5 4 8 9 6 2 4 6 6 7 8 8 8 5 5 6 10 13 14 15 15 15 15 15 15 14 13 5 5 7 8 4 6 6 8 7 7 3 5 5 3 9 4 4 5 4 4 5 5 6 6 6 6 6 7
7 7 8 7 7 8 8 9 13 10 8 9 12 11 12 11 7 4 4 4 4 5 4 3 2 2 3 3 6 5 4 5 7 6 5 2 3 4 5 6 7 9 8 6 6 7 6 6 6 6 7 9 9 7 9 13 12 9 8 9 6 5 7 7 7 6 8 5 6 9 6 6 3 2 4 4 7 6 3 5 5 4 3 3 3
Wind_Direction
73 62 68 68 65 59 56 55 55 36 45 52 54 49 41 37 36 28 30 16 2 3 4 20 19 28 75 137 139 153 149 166 219 266 276 277 305 293 288 277 278 291 297 299 300 302 298 297 301 303 310 313 316 314 315 319 322 322 321 322 322 324 328 331 334 333 333 332 331 331 332 332 331 330 326 322 321 318 314 309 306 304 303 297 295
89 48 71 65 64 62 60 51 59 27 43 52 38 57 46 33 21 24 11 7 356 345 10 342 352 351 328 228 169 170 169 173 213 251 272 274 268 281 290 289 281 276 285 291 294 297 302 306 309 310 310 308 310 314 316 316 313 312 315 316 318 321 324 333 331 328 328 329 329 329 331 330 330 328 325 322 318 315 309 306 302 300 298 294 293
94 77 70 66 61 64 52 47 45 39 50 64 42 64 56 43 9 358 353 343 342 340 3 345 324 325 289 242 220 165 177 183 197 225 249 259 265 272 285 290 294 288 279 281 286 293 297 301 304 308 311 311 311 313 314 314 316 316 317 319 320 322 327 328 326 324 324 326 329 329 328 328 326 324 323 321 315 308 304 301 298 295 291 290 288
105 93 99 75 63 66 49 44 36 33 51 56 49 39 37 14 24 132 12 311 327 333 346 348 310 295 279 241 218 198 187 193 208 220 244 254 264 268 275 282 293 299 293 286 286 290 293 294 298 302 304 305 307 308 310 312 313 315 317 317 319 319 320 323 323 322 324 326 326 325 323 323 321 318 317 314 308 304 302 302 299 295 298 295 291
121 116 105 99 83 60 55 45 29 43 55 54 53 24 27 18 34 28 5 6 351 342 345 337 306 302 279 260 226 235 211 197 222 227 241 252 255 266 266 276 281 292 293 294 295 293 291 293 297 299 300 302 304 307 307 308 309 312 314 313 315 317 318 319 321 320 321 323 322 322 320 317 315 314 313 309 306 304 304 303 302 299 299 298 294
137 124 117 120 102 76 62 36 22 44 61 51 46 28 13 16 1 5 351 3 335 327 352 342 346 332 221 252 223 251 246 231 226 239 245 253 256 259 264 263 272 280 286 288 287 291 293 296 296 296 297 299 301 302 302 302 305 308 311 312 311 311 314 316 317 319 319 319 319 317 316 314 313 314 315 310 309 308 309 308 305 303 303 299 297
146 145 137 135 137 120 80 67 71 69 49 48 51 23 28 4 346 345 330 344 345 308 345 334 327 327 293 260 261 270 250 253 248 249 243 251 248 253 256 262 267 267 278 282 285 283 287 290 292 294 295 296 296 297 297 299 301 302 303 306 308 310 313 316 317 317 316 315 313 311 308 311 316 317 312 312 315 316 317 317 315 311 309 307 308
140 141 138 141 138 127 110 105 86 65 52 28 35 19 360 344 337 32 351 336 352 339 360 338 325 327 321 212 225 229 224 232 241 238 240 239 246 250 248 256 261 266 266 271 280 286 283 284 288 290 293 293 292 292 293 295 298 299 299 300 302 303 306 309 311 313 312 311 309 308 312 318 318 315 315 320 322 324 328 326 324 320 319 320 320
133 130 130 141 121 118 121 106 88 68 38 28 31 22 358 324 325 121 127 295 318 320 328 320 342 316 312 270 237 214 221 219 229 231 230 235 244 246 249 249 255 262 269 271 280 284 286 287 288 292 295 294 292 290 289 292 293 296 297 298 299 300 303 305 307 307 307 307 306 313 318 319 321 321 326 332 335 336 328 327 328 335 333 336 339
143 132 106 142 124 116 112 109 98 78 58 27 8 339 318 333 330 5 130 253 293 314 326 339 334 306 246 249 262 205 221 228 231 236 222 243 241 245 245 250 257 260 265 268 271 277 284 286 292 295 295 297 297 295 295 294 294 293 293 294 295 296 300 301 302 303 305 307 307 314 318 321 326 329 335 337 337 337 333 338 345 344 347 354 353
153 148 143 160 125 120 107 142 144 126 67 31 359 352 342 40 17 323 284 236 251 280 303 308 315 315 305 304 206 229 230 225 230 228 230 238 249 251 240 247 255 258 262 263 267 271 278 285 291 290 292 292 295 299 302 302 300 295 292 290 289 291 296 300 301 303 307 310 311 314 319 325 331 336 338 339 344 342 344 353 358 360 4 358 355
161 155 160 160 151 146 118 145 164 134 73 4 331 326 323 358 349 318 336 325 329 329 343 335 303 341 333 322 290 230 230 216 216 223 230 237 242 253 256 256 246 261 257 261 263 269 273 280 285 291 293 297 302 308 310 307 305 301 297 293 290 290 293 298 304 307 308 309 313 320 329 336 340 339 343 350 352 350 10 12 8 3 357 353 350
162 155 170 169 144 144 133 141 151 112 116 243 270 306 331 89 334 352 359 2 331 359 37 51 26 357 342 342 329 301 254 199 212 216 225 230 226 241 247 264 259 258 263 264 266 271 277 281 285 288 290 297 308 310 308 306 303 303 303 302 302 301 301 302 307 309 311 314 322 334 340 344 343 347 350 360 355 16 18 11 5 359 353 350 345
167 168 159 165 151 145 136 123 127 158 247 287 300 333 29 51 7 5 42 11 313 324 349 1 22 37 354 330 338 325 336 349 282 260 246 233 225 228 231 250 260 258 267 258 261 261 267 273 279 286 287 294 299 309 312 309 305 304 301 304 308 309 310 311 312 312 314 323 335 345 348 347 347 352 357 3 17 22 15 8 1 352 346 346 345
173 164 161 170 160 147 148 134 154 198 245 293 343 350 43 48 56 54 341 9 302 306 352 33 41 351 213 26 5 356 332 352 336 284 270 253 226 234 233 245 256 266 254 253 255 267 271 274 278 280 286 290 294 299 301 302 305 312 311 310 311 313 316 316 313 313 320 334 347 348 352 352 354 354 5 7 30 21 16 4 354 349 344 347 347
195 154 152 164 165 172 145 145 178 208 196 248 306 268 142 84 69 75 84 349 3 326 18 293 145 38 3 12 287 43 347 336 328 301 278 246 224 236 232 250 265 264 238 257 269 271 269 264 268 270 276 280 287 294 297 300 309 313 311 316 322 324 320 318 321 323 330 341 350 352 353 356 357 358 3 360 33 21 14 0 352 347 348 348 347
203 174 165 171 170 162 161 168 178 183 156 172 243 261 283 148 133 86 73 355 336 330 307 252 360 226 138 44 357 21 224 267 334 285 355 350 323 283 239 244 255 250 250 262 270 265 279 277 266 265 265 270 281 288 294 303 311 309 316 320 325 328 331 326 321 327 333 339 345 349 353 357 357 352 355 354 33 23 16 3 356 352 348 345 343
179 188 183 147 169 178 163 165 181 165 172 174 183 109 69 20 183 189 236 219 230 50 322 313 26 44 135 182 163 148 287 292 21 327 322 274 284 270 259 260 253 251 253 264 267 271 236 271 265 271 264 269 278 285 290 296 296 297 302 309 318 325 336 328 316 322 327 329 334 344 352 350 346 341 344 348 9 26 16 10 359 353 347 344 344
170 179 170 170 162 172 177 183 178 177 158 126 161 198 204 237 18 176 249 180 152 50 352 314 343 56 16 58 45 28 101 27 345 260 353 324 340 345 338 309 256 250 254 253 261 269 263 247 273 280 285 281 281 280 288 284 287 296 301 306 313 315 337 327 319 312 319 317 321 337 343 341 333 331 327 328 354 19 21 11 2 354 348 345 343
163 176 169 166 160 175 185 176 178 185 174 170 189 165 102 334 279 293 354 207 165 91 12 8 52 321 6 45 53 100 82 135 164 88 182 321 333 327 251 313 311 235 245 272 265 260 276 271 267 269 267 273 247 263 275 284 288 290 300 308 304 307 322 323 314 304 306 310 314 325 330 326 322 317 319 318 333 10 22 11 5 355 350 346 342
176 172 179 170 174 172 178 183 188 199 194 184 184 146 197 291 305 245 198 179 207 151 86 46 70 39 355 6 11 45 19 73 128 143 108 26 306 356 326 325 335 1 340 266 261 248 245 260 244 264 270 268 232 254 250 275 282 274 276 294 292 291 299 298 298 294 297 300 307 312 317 317 309 303 308 313 320 351 11 11 7 356 351 347 341
194 180 174 181 180 170 171 185 198 197 212 211 201 153 203 237 245 241 205 179 16 199 74 145 148 146 96 125 25 337 7 6 19 39 69 83 93 316 323 346 345 307 320 342 321 285 261 252 259 259 271 287 322 259 253 248 250 255 275 292 291 290 285 278 278 276 283 292 297 299 305 308 303 295 294 302 308 322 348 352 359 351 350 342 341
184 194 187 180 187 184 180 191 187 191 200 203 222 228 225 237 250 208 191 178 181 157 80 69 105 83 50 48 91 75 77 307 299 315 5 354 1 324 317 239 263 317 305 324 311 309 292 284 278 299 338 313 268 240 235 238 239 249 267 287 285 280 277 276 271 270 276 283 284 288 294 299 301 301 298 297 298 301 307 318 324 341 342 341 340
197 189 201 191 184 191 193 183 188 180 195 199 218 217 219 208 205 192 196 191 165 132 116 90 87 95 78 321 137 204 172 236 280 213 197 229 176 279 294 320 305 236 287 315 286 320 327 305 269 263 257 290 300 230 242 240 261 269 274 272 278 274 270 270 271 270 271 275 280 282 284 285 289 289 289 289 290 284 285 288 294 297 321 333 335
207 198 203 193 184 187 186 187 196 192 183 187 212 206 210 205 199 190 182 192 194 164 133 155 155 97 122 208 82 249 329 273 221 248 255 161 177 296 315 144 283 310 318 3 342 318 284 359 345 310 255 134 133 200 218 238 253 265 276 277 268 271 268 267 268 271 272 273 276 278 276 277 281 283 283 270 270 272 271 275 275 264 270 296 335
198 210 201 187 192 197 193 198 196 188 186 196 202 204 196 210 201 190 203 209 178 181 149 151 178 173 165 125 360 329 356 339 301 183 202 163 226 336 322 312 180 308 295 341 321 359 334 346 358 310 268 156 193 202 172 261 252 259 252 266 274 266 267 266 267 270 272 274 276 276 275 269 266 277 280 279 265 263 261 262 269 255 250 262 313
204 207 188 189 196 193 199 197 194 195 192 197 195 194 196 193 198 208 199 182 198 184 187 175 189 166 169 148 307 315 336 352 297 293 200 244 219 183 75 22 350 359 355 325 334 71 270 294 315 357 354 321 319 350 314 230 273 274 275 261 270 271 265 266 268 272 275 279 280 279 277 275 266 268 274 280 278 275 275 270 264 261 242 243 241
198 182 194 186 188 193 198 206 198 197 201 203 201 199 197 200 205 193 212 179 193 203 214 192 213 197 193 173 315 295 298 316 302 272 241 246 252 129 115 111 76 347 334 341 352 300 309 328 320 331 6 4 346 342 320 303 283 289 272 262 261 273 270 272 278 279 279 278 278 278 278 276 273 266 266 274 278 277 275 275 270 264 241 235 231
188 185 180 187 187 186 193 201 198 200 207 213 209 207 200 206 208 201 217 202 197 219 206 211 233 169 184 203 234 273 280 287 302 278 261 231 213 209 191 162 160 85 316 323 289 282 286 238 333 295 20 8 355 345 340 326 311 298 277 264 268 264 279 282 280 280 279 276 273 274 276 276 274 273 268 269 277 277 275 274 271 263 253 239 225
182 184 175 182 182 191 186 199 202 198 206 214 216 220 206 219 219 219 221 194 213 218 212 207 234 193 192 192 213 265 267 281 297 287 274 260 235 223 222 214 158 216 187 250 283 216 266 285 217 290 328 345 340 335 336 306 311 296 262 251 259 261 279 282 285 284 281 278 274 272 274 276 275 275 275 275 276 277 275 268 268 264 258 251 227
177 179 176 182 177 186 182 197 198 206 205 213 215 222 212 226 230 238 236 206 221 244 232 205 219 202 231 250 216 244 243 266 283 296 290 258 256 214 245 146 232 150 175 184 254 281 188 292 286 228 281 308 316 310 306 263 287 298 281 275 260 282 288 287 287 289 287 284 279 275 274 273 273 273 274 274 273 274 275 264 260 261 261 256 242
183 179 184 187 181 184 192 194 201 205 209 210 203 210 210 227 233 237 241 208 230 244 257 230 235 213 227 249 252 251 232 222 259 272 284 264 241 242 189 191 213 205 152 178 214 270 237 243 281 287 272 279 303 298 293 286 272 282 308 296 300 307 301 295 297 293 292 289 288 282 276 273 270 270 270 270 271 273 273 269 272 267 256 256 247
174 177 188 195 188 189 193 197 200 202 204 212 196 187 193 219 227 240 237 214 228 248 257 266 248 233 237 247 254 252 229 248 251 253 254 244 193 216 183 168 199 168 174 174 256 279 286 254 270 282 313 318 303 235 287 288 299 301 304 285 300 302 301 292 293 290 287 288 289 288 282 276 273 270 269 269 269 270 271 272 276 272 267 266 258
183 190 190 194 191 187 195 200 199 202 204 212 207 191 199 206 223 215 224 215 229 247 245 261 259 249 248 257 263 261 227 242 260 260 248 245 214 204 197 198 207 209 200 197 227 247 288 306 287 282 289 225 277 275 277 302 301 314 312 309 302 288 294 299 292 289 287 289 291 289 285 279 276 272 270 269 269 272 273 275 277 277 273 269 265
202 203 199 196 195 190 199 207 203 204 208 213 207 204 210 211 217 219 215 213 224 235 237 247 256 261 262 256 267 270 244 251 252 260 261 260 253 238 240 203 218 218 199 211 187 253 271 280 252 299 273 292 243 290 296 280 290 294 297 294 304 309 296 293 294 291 291 291 293 291 287 283 278 274 273 270 269 271 274 278 279 280 278 273 269
209 218 211 206 200 200 204 210 208 211 209 214 211 212 218 220 222 226 217 217 223 232 240 248 251 246 252 262 262 256 255 260 266 265 261 259 260 255 263 259 242 247 207 189 225 250 274 288 272 249 277 295 270 255 271 277 280 287 278 294 297 291 300 300 288 290 293 290 292 292 290 288 284 281 277 273 270 271 273 275 278 280 279 274 267
211 205 219 213 213 206 213 216 216 212 214 210 211 214 217 216 222 228 228 223 227 231 235 238 244 235 241 245 255 250 229 246 258 259 258 264 250 243 252 255 248 255 245 219 233 219 257 275 287 273 300 291 270 285 285 298 304 292 288 279 297 300 296 289 287 284 284 288 289 291 290 287 287 285 281 278 273 269 268 270 274 278 279 276 269
201 205 210 210 212 218 220 223 219 222 216 210 211 219 219 216 215 222 225 227 227 228 232 233 233 229 236 239 247 246 241 235 252 252 243 248 248 245 249 245 240 242 253 259 230 235 242 267 278 298 286 291 301 285 299 291 300 310 307 287 257 256 280 307 309 306 313 311 316 314 307 297 285 281 278 277 275 271 269 269 271 275 276 277 270
193 200 199 203 212 215 226 225 224 218 218 212 214 214 218 219 220 223 228 226 228 225 229 231 234 234 234 238 240 236 236 233 243 249 250 247 238 241 232 242 236 228 247 243 229 227 230 258 265 236 271 247 232 286 298 161 255 253 286 311 314 301 246 282 310 312 313 315 303 288 284 286 291 293 292 287 281 274 272 269 269 269 273 274 271
211 207 201 200 204 201 212 217 224 224 222 217 212 213 215 215 219 226 227 231 235 235 235 234 233 234 234 237 239 236 232 235 233 240 231 244 234 248 238 226 230 227 244 243 238 238 249 250 253 278 254 285 274 243 255 283 282 246 205 252 286 305 315 308 269 296 308 311 307 310 300 285 286 277 276 275 271 271 272 274 267 264 267 269 271
185 233 227 221 215 216 221 220 218 213 214 219 211 208 210 214 213 225 224 226 233 238 243 245 242 241 241 241 243 241 235 237 232 235 234 225 227 240 240 210 226 224 239 239 234 242 252 255 275 256 269 275 270 289 298 272 246 283 231 222 267 272 284 303 298 266 251 280 288 295 294 310 305 304 301 299 283 276 269 255 268 266 262 265 266
90 48 18 360 216 225 232 232 228 219 221 217 219 215 213 213 210 222 223 228 229 231 237 244 248 241 241 241 243 243 243 245 246 243 241 238 234 233 239 213 218 224 228 241 244 239 248 262 259 271 283 277 277 271 269 261 260 251 255 234 270 287 301 283 275 257 228 249 289 306 304 303 292 295 290 282 291 271 282 274 271 272 276 268 265
94 66 55 38 16 295 230 241 241 240 243 235 229 221 219 222 221 212 220 232 227 231 232 232 243 242 240 238 240 246 248 248 248 248 247 245 243 243 246 245 238 223 228 238 246 235 238 248 259 256 253 270 273 267 259 277 264 256 265 248 254 277 286 317 312 314 121 244 269 300 302 311 306 298 302 294 292 292 280 273 277 277 271 270 269
79 92 84 78 60 11 267 177 213 230 246 260 261 250 235 228 224 229 227 234 233 235 236 236 239 241 242 241 239 236 237 238 243 246 247 248 248 249 249 249 248 245 241 238 248 251 226 242 253 248 252 253 269 271 269 259 263 255 235 236 237 252 272 264 258 268 261 50 320 304 293 301 174 287 294 289 294 284 282 280 281 279 276 272 269
95 65 54 80 73 64 41 24 22 317 305 339 337 308 271 241 223 220 238 232 234 237 236 237 242 247 248 248 252 242 244 239 241 240 242 254 252 250 254 258 260 246 237 239 240 241 250 242 248 262 244 252 262 261 238 237 209 266 271 244 233 232 234 257 254 273 284 156 269 286 288 295 304 288 288 292 296 287 290 278 272 274 278 276 272
68 62 47 35 39 51 50 42 34 39 56 31 15 360 354 331 277 215 224 231 238 245 244 243 245 244 240 241 249 253 243 243 244 243 242 245 253 260 259 250 252 258 247 230 233 239 239 240 239 248 257 222 250 259 261 239 251 266 274 274 267 257 249 246 259 257 271 169 265 285 285 283 269 260 272 288 298 298 286 281 281 280 279 278 275
55 50 46 46 39 31 29 32 46 47 39 18 36 37 24 9 3 217 247 247 248 250 251 249 253 255 255 247 247 254 260 246 227 227 238 245 251 256 260 260 254 251 250 242 222 213 210 223 230 236 252 251 251 260 268 259 243 258 257 277 285 278 276 284 272 249 261 233 230 205 257 278 241 274 265 273 288 290 283 289 276 274 277 277 276
67 65 53 57 54 50 44 40 34 39 35 24 17 19 27 26 28 94 93 260 274 283 285 292 293 280 271 260 256 263 266 268 269 258 255 262 251 251 256 259 261 258 252 245 240 235 229 217 215 227 236 245 247 254 258 259 249 241 259 255 263 257 268 274 275 279 267 216 185 204 254 255 247 277 279 277 277 275 282 282 284 274 273 278 282
101 80 66 46 42 52 53 44 50 49 37 21 22 23 24 24 34 63 66 70 305 295 294 297 299 302 302 293 273 272 276 278 287 294 286 264 257 258 263 270 274 279 274 275 234 237 240 239 239 240 244 248 252 254 259 259 248 267 307 281 260 255 253 269 264 263 260 222 187 211 249 272 230 237 270 272 263 273 277 280 285 287 286 291 287
70 63 57 52 38 39 42 43 44 51 36 24 27 30 41 38 51 51 38 44 23 346 333 321 313 310 301 305 308 295 289 301 9 9 5 303 258 264 269 276 282 278 276 282 288 259 233 240 247 250 255 261 263 266 268 267 261 217 208 236 249 244 254 249 266 261 272 233 228 179 241 257 266 214 253 274 277 241 254 260 273 283 293 286 275
70 69 64 58 53 43 41 37 32 35 40 32 27 31 35 39 54 63 48 50 39 22 3 344 337 318 298 308 299 354 26 34 39 40 21 334 270 269 269 274 273 275 277 304 289 288 287 277 261 250 254 248 247 241 252 252 250 218 215 234 256 238 254 257 261 282 282 246 214 169 215 264 246 222 205 281 280 264 223 273 278 283 281 282 288